Tracking 28790 objects as of 19-Apr-2024
HD Live streaming from Space Station
objects crossing your sky now

COSMOS 909

Track COSMOS 909 now!
10-day predictions
COSMOS 909 is classified as:


NORAD ID: 10010
Int'l Code: 1977-036A
Perigee: 995.8 km
Apogee: 2,114.1 km
Inclination: 65.9 °
Period: 117.0 minutes
Semi major axis: 7925 km
RCS: 1.4527 m2 (large)
Launch date: May 19, 1977
Source: Commonwealth of Independent States (former USSR) (CIS)
Launch site: PLESETSK MISSILE AND SPACE COMPLEX (PKMTR)
Your satellite tracking list
Your tracking list is empty




NASA's NSSDC Master Catalog

Two Line Element Set (TLE):
1 10010U 77036A   24110.56617127 -.00000051  00000-0  10942-4 0  9995
2 10010  65.8603 274.2740 0705478   4.8737 355.8664 12.30346857108137
Source of the keplerian elements: AFSPC